| time (UTC) | temp F | wind direction | speed MPH | gust MPH | rain 1hr in | rain 24hr in | rain mn in | humidity % | barometer mb |
| 20260901040508 | 84 | 128 | 4.0 | 7.0 | 0.00 | 0.00 | 0.00 | 61 | 1016.5 |
| 20260901040008 | 84 | 119 | 2.0 | 10.0 | 0.00 | 0.00 | 0.00 | 60 | 1016.5 |
| 20260901035507 | 84 | 122 | 4.0 | 10.0 | 0.00 | 0.00 | 0.00 | 60 | 1016.4 |
| 20260901035008 | 84 | 111 | 3.0 | 8.0 | 0.00 | 0.00 | 0.00 | 59 | 1016.3 |
| 20260901034507 | 84 | 119 | 2.0 | 7.0 | 0.00 | 0.00 | 0.00 | 59 | 1016.2 |
| 20260901034007 | 84 | 124 | 2.0 | 8.0 | 0.00 | 0.00 | 0.00 | 59 | 1016.1 |
| 20260901033508 | 84 | 111 | 2.0 | 8.0 | 0.00 | 0.00 | 0.00 | 58 | 1016.1 |
| 20260901033006 | 84 | 112 | 2.0 | 7.0 | 0.00 | 0.00 | 0.00 | 58 | 1016.1 |
| 20260901032506 | 84 | 113 | 2.0 | 7.0 | 0.00 | 0.00 | 0.00 | 58 | 1016.1 |
| 20260901032007 | 84 | 119 | 1.0 | 4.0 | 0.00 | 0.00 | 0.00 | 58 | 1016.1 |
| 20260901031509 | 84 | 119 | 2.0 | 4.0 | 0.00 | 0.00 | 0.00 | 57 | 1016.0 |
| 20260901031005 | 85 | 119 | 2.0 | 5.0 | 0.00 | 0.00 | 0.00 | 57 | 1015.8 |
| 20260901030505 | 85 | 121 | 2.0 | 5.0 | 0.00 | 0.00 | 0.00 | 57 | 1015.8 |
| 20260901030005 | 85 | 120 | 2.0 | 7.0 | 0.00 | 0.00 | 0.00 | 57 | 1015.7 |
| 20260901025505 | 85 | 123 | 2.0 | 7.0 | 0.00 | 0.00 | 0.00 | 57 | 1015.6 |
| 20260901025005 | 85 | 121 | 2.0 | 7.0 | 0.00 | 0.00 | 0.00 | 57 | 1015.6 |
| 20260901024505 | 85 | 119 | 2.0 | 7.0 | 0.00 | 0.00 | 0.00 | 57 | 1015.3 |
| 20260901024009 | 85 | 115 | 2.0 | 5.0 | 0.00 | 0.00 | 0.00 | 57 | 1015.3 |
| 20260901023505 | 85 | 113 | 2.0 | 5.0 | 0.00 | 0.00 | 0.00 | 57 | 1015.3 |
| 20260901023005 | 85 | 113 | 2.0 | 7.0 | 0.00 | 0.00 | 0.00 | 57 | 1015.2 |
| 20260901022504 | 84 | 113 | 2.0 | 7.0 | 0.00 | 0.00 | 0.00 | 58 | 1015.1 |
| 20260901022004 | 84 | 110 | 2.0 | 7.0 | 0.00 | 0.00 | 0.00 | 58 | 1015.2 |
| 20260901021504 | 84 | 101 | 2.0 | 6.0 | 0.00 | 0.00 | 0.00 | 57 | 1015.1 |
| 20260901021004 | 84 | 101 | 2.0 | 6.0 | 0.00 | 0.00 | 0.00 | 56 | 1015.0 |
| 20260901020504 | 85 | 100 | 2.0 | 5.0 | 0.00 | 0.00 | 0.00 | 56 | 1014.9 |
| 20260901020003 | 85 | 100 | 1.0 | 6.0 | 0.00 | 0.00 | 0.00 | 55 | 1014.9 |
| 20260901015506 | 85 | 100 | 2.0 | 7.0 | 0.00 | 0.00 | 0.00 | 55 | 1014.8 |
| 20260901015002 | 85 | 100 | 2.0 | 8.0 | 0.00 | 0.00 | 0.00 | 54 | 1014.8 |
| 20260901014503 | 85 | 100 | 3.0 | 8.0 | 0.00 | 0.00 | 0.00 | 53 | 1014.7 |
| 20260901014004 | 85 | 103 | 3.0 | 8.0 | 0.00 | 0.00 | 0.00 | 53 | 1014.8 |
| 20260901013501 | 85 | 103 | 2.0 | 8.0 | 0.00 | 0.00 | 0.00 | 52 | 1014.7 |
| 20260901013001 | 86 | 97 | 3.0 | 11.0 | 0.00 | 0.00 | 0.00 | 51 | 1014.7 |
| 20260901012501 | 86 | 94 | 3.0 | 11.0 | 0.00 | 0.00 | 0.00 | 51 | 1014.6 |
| 20260901012001 | 87 | 101 | 1.0 | 3.0 | 0.00 | 0.00 | 0.00 | 50 | 1014.5 |
| 20260901011506 | 87 | 101 | 0.0 | 1.0 | 0.00 | 0.00 | 0.00 | 49 | 1014.4 |
| 20260901011001 | 88 | 101 | 0.0 | 1.0 | 0.00 | 0.00 | 0.00 | 48 | 1014.3 |
| 20260901010502 | 88 | 101 | 0.0 | 1.0 | 0.00 | 0.00 | 0.00 | 47 | 1014.4 |
| 20260901010003 | 89 | 101 | 0.0 | 5.0 | 0.00 | 0.00 | 0.00 | 47 | 1014.3 |
| 20260901005500 | 89 | 101 | 2.0 | 6.0 | 0.00 | 0.00 | 0.00 | 46 | 1014.2 |
| 20260901005001 | 89 | 101 | 1.0 | 6.0 | 0.00 | 0.00 | 0.00 | 46 | 1014.3 |
| 20260901004616 | 89 | 101 | 0.0 | 6.0 | 0.00 | 0.00 | 0.00 | 45 | 1014.3 |
| 20260901004101 | 90 | 101 | 0.0 | 7.0 | 0.00 | 0.00 | 0.00 | 45 | 1014.3 |
| 20260901003604 | 90 | 102 | 2.0 | 7.0 | 0.00 | 0.00 | 0.00 | 45 | 1014.2 |
| 20260901003059 | 90 | 105 | 1.0 | 5.0 | 0.00 | 0.00 | 0.00 | 45 | 1014.2 |
| 20260901002600 | 90 | 105 | 1.0 | 5.0 | 0.00 | 0.00 | 0.00 | 45 | 1014.1 |
| 20260901002100 | 90 | 105 | 2.0 | 5.0 | 0.00 | 0.00 | 0.00 | 44 | 1014.1 |
| 20260901001605 | 91 | 107 | 1.0 | 5.0 | 0.00 | 0.00 | 0.00 | 43 | 1014.1 |
| 20260901001059 | 91 | 107 | 1.0 | 4.0 | 0.00 | 0.00 | 0.00 | 43 | 1014.1 |
| 20260901000602 | 91 | 107 | 0.0 | 7.0 | 0.00 | 0.00 | 0.00 | 43 | 1014.1 |
| 20260901000107 | 91 | 107 | 1.0 | 9.0 | 0.00 | 0.00 | 0.00 | 43 | 1014.0 |
| 20260831235559 | 91 | 110 | 2.0 | 9.0 | 0.00 | 0.00 | 0.00 | 42 | 1014.0 |
| 20260831235059 | 92 | 104 | 3.0 | 9.0 | 0.00 | 0.00 | 0.00 | 42 | 1014.0 |
| 20260831234600 | 92 | 104 | 2.0 | 9.0 | 0.00 | 0.00 | 0.00 | 42 | 1013.9 |
| 20260831234059 | 92 | 104 | 2.0 | 10.0 | 0.00 | 0.00 | 0.00 | 42 | 1014.0 |
| 20260831233659 | 92 | 105 | 2.0 | 10.0 | 0.00 | 0.00 | 0.00 | 42 | 1014.0 |
| 20260831233058 | 92 | 108 | 1.0 | 7.0 | 0.00 | 0.00 | 0.00 | 41 | 1013.9 |
| 20260831232558 | 92 | 109 | 3.0 | 7.0 | 0.00 | 0.00 | 0.00 | 41 | 1013.9 |
| 20260831232056 | 93 | 103 | 1.0 | 11.0 | 0.00 | 0.00 | 0.00 | 41 | 1013.9 |
| 20260831231603 | 93 | 105 | 6.0 | 11.0 | 0.00 | 0.00 | 0.00 | 40 | 1014.0 |
| 20260831231055 | 93 | 125 | 2.0 | 11.0 | 0.00 | 0.00 | 0.00 | 40 | 1014.0 |
| 20260831230556 | 93 | 93 | 4.0 | 11.0 | 0.00 | 0.00 | 0.00 | 40 | 1014.0 |
| 20260831230057 | 93 | 108 | 2.0 | 11.0 | 0.00 | 0.00 | 0.00 | 41 | 1014.0 |
| 20260831225554 | 93 | 94 | 5.0 | 11.0 | 0.00 | 0.00 | 0.00 | 42 | 1014.1 |
| 20260831225053 | 93 | 103 | 0.0 | 11.0 | 0.00 | 0.00 | 0.00 | 42 | 1014.1 |
| 20260831224553 | 94 | 103 | 3.0 | 11.0 | 0.00 | 0.00 | 0.00 | 41 | 1014.2 |
| 20260831224054 | 94 | 94 | 6.0 | 11.0 | 0.00 | 0.00 | 0.00 | 41 | 1014.1 |
| 20260831223554 | 94 | 92 | 3.0 | 8.0 | 0.00 | 0.00 | 0.00 | 40 | 1014.1 |
| 20260831223052 | 94 | 94 | 4.0 | 9.0 | 0.00 | 0.00 | 0.00 | 39 | 1014.1 |
| 20260831222551 | 94 | 108 | 3.0 | 11.0 | 0.00 | 0.00 | 0.00 | 40 | 1014.2 |
| 20260831222050 | 94 | 68 | 3.0 | 8.0 | 0.00 | 0.00 | 0.00 | 41 | 1014.3 |
| 20260831221549 | 94 | 116 | 2.0 | 7.0 | 0.00 | 0.00 | 0.00 | 40 | 1014.2 |
| 20260831221050 | 95 | 100 | 1.0 | 6.0 | 0.00 | 0.00 | 0.00 | 39 | 1014.3 |
| 20260831220547 | 95 | 100 | 2.0 | 6.0 | 0.00 | 0.00 | 0.00 | 39 | 1014.4 |
| 20260831220048 | 94 | 100 | 2.0 | 7.0 | 0.00 | 0.00 | 0.00 | 40 | 1014.5 |
| 20260831215545 | 94 | 101 | 3.0 | 7.0 | 0.00 | 0.00 | 0.00 | 39 | 1014.6 |
| 20260831215045 | 95 | 105 | 2.0 | 14.0 | 0.00 | 0.00 | 0.00 | 39 | 1014.7 |
| 20260831214545 | 96 | 101 | 3.0 | 14.0 | 0.00 | 0.00 | 0.00 | 38 | 1014.7 |
| 20260831214047 | 97 | 84 | 6.0 | 13.0 | 0.00 | 0.00 | 0.00 | 38 | 1014.7 |
| 20260831213544 | 96 | 96 | 5.0 | 13.0 | 0.00 | 0.00 | 0.00 | 38 | 1014.7 |
| 20260831213043 | 96 | 122 | 2.0 | 5.0 | 0.00 | 0.00 | 0.00 | 40 | 1014.8 |
| 20260831212542 | 95 | 126 | 1.0 | 4.0 | 0.00 | 0.00 | 0.00 | 41 | 1014.9 |
| 20260831212042 | 95 | 126 | 2.0 | 9.0 | 0.00 | 0.00 | 0.00 | 40 | 1014.9 |
| 20260831211543 | 96 | 126 | 2.0 | 11.0 | 0.00 | 0.00 | 0.00 | 39 | 1015.0 |
| 20260831211039 | 96 | 95 | 4.0 | 11.0 | 0.00 | 0.00 | 0.00 | 40 | 1015.1 |
| 20260831210539 | 96 | 107 | 3.0 | 10.0 | 0.00 | 0.00 | 0.00 | 39 | 1015.2 |
| 20260831210039 | 96 | 115 | 2.0 | 12.0 | 0.00 | 0.00 | 0.00 | 40 | 1015.2 |
| 20260831205538 | 96 | 126 | 3.0 | 12.0 | 0.00 | 0.00 | 0.00 | 39 | 1015.3 |
| 20260831205041 | 95 | 111 | 1.0 | 9.0 | 0.00 | 0.00 | 0.00 | 41 | 1015.3 |
| 20260831204539 | 95 | 100 | 2.0 | 8.0 | 0.00 | 0.00 | 0.00 | 40 | 1015.5 |
| 20260831204036 | 95 | 108 | 2.0 | 14.0 | 0.00 | 0.00 | 0.00 | 40 | 1015.6 |
| 20260831203536 | 96 | 99 | 3.0 | 14.0 | 0.00 | 0.00 | 0.00 | 39 | 1015.6 |
| 20260831203034 | 98 | 66 | 4.0 | 9.0 | 0.00 | 0.00 | 0.00 | 37 | 1015.7 |
| 20260831202532 | 98 | 9 | 4.0 | 11.0 | 0.00 | 0.00 | 0.00 | 38 | 1015.8 |
| 20260831202031 | 97 | 83 | 4.0 | 11.0 | 0.00 | 0.00 | 0.00 | 39 | 1015.8 |
| 20260831201530 | 97 | 100 | 3.0 | 9.0 | 0.00 | 0.00 | 0.00 | 38 | 1016.0 |
| 20260831201029 | 97 | 132 | 3.0 | 11.0 | 0.00 | 0.00 | 0.00 | 39 | 1016.1 |
| 20260831200529 | 97 | 105 | 4.0 | 11.0 | 0.00 | 0.00 | 0.00 | 38 | 1016.2 |
| 20260831200027 | 96 | 121 | 3.0 | 11.0 | 0.00 | 0.00 | 0.00 | 40 | 1016.2 |
| 20260831195528 | 96 | 110 | 4.0 | 13.0 | 0.00 | 0.00 | 0.00 | 41 | 1016.4 |
| 20260831195027 | 97 | 108 | 2.0 | 11.0 | 0.00 | 0.00 | 0.00 | 39 | 1016.5 |
| 20260831194525 | 97 | 113 | 4.0 | 12.0 | 0.00 | 0.00 | 0.00 | 39 | 1016.5 |
| 20260831194025 | 97 | 121 | 5.0 | 12.0 | 0.00 | 0.00 | 0.00 | 40 | 1016.5 |
| 20260831193524 | 96 | 135 | 2.0 | 9.0 | 0.00 | 0.00 | 0.00 | 41 | 1016.6 |
| 20260831193036 | 96 | 105 | 2.0 | 13.0 | 0.00 | 0.00 | 0.00 | 40 | 1016.7 |
| 20260831192521 | 96 | 105 | 6.0 | 13.0 | 0.00 | 0.00 | 0.00 | 40 | 1016.8 |
| 20260831192023 | 95 | 130 | 2.0 | 10.0 | 0.00 | 0.00 | 0.00 | 41 | 1016.8 |
| 20260831191520 | 95 | 136 | 3.0 | 10.0 | 0.00 | 0.00 | 0.00 | 42 | 1016.9 |
| 20260831191020 | 94 | 109 | 1.0 | 15.0 | 0.00 | 0.00 | 0.00 | 44 | 1016.9 |
| 20260831190520 | 95 | 106 | 3.0 | 15.0 | 0.00 | 0.00 | 0.00 | 42 | 1017.0 |
| 20260831190037 | 96 | 120 | 2.0 | 9.0 | 0.00 | 0.00 | 0.00 | 43 | 1017.0 |
| 20260831185521 | 96 | 101 | 1.0 | 10.0 | 0.00 | 0.00 | 0.00 | 43 | 1017.1 |
| 20260831185018 | 95 | 103 | 4.0 | 12.0 | 0.00 | 0.00 | 0.00 | 45 | 1017.1 |
| 20260831184517 | 95 | 95 | 5.0 | 12.0 | 0.00 | 0.00 | 0.00 | 46 | 1017.1 |
| 20260831184020 | 94 | 134 | 3.0 | 10.0 | 0.00 | 0.00 | 0.00 | 45 | 1017.2 |
| 20260831183517 | 93 | 122 | 3.0 | 8.0 | 0.00 | 0.00 | 0.00 | 48 | 1017.2 |
| 20260831183016 | 95 | 136 | 1.0 | 8.0 | 0.00 | 0.00 | 0.00 | 44 | 1017.4 |
| 20260831182515 | 95 | 136 | 1.0 | 8.0 | 0.00 | 0.00 | 0.00 | 43 | 1017.4 |
| 20260831182015 | 94 | 109 | 5.0 | 8.0 | 0.00 | 0.00 | 0.00 | 46 | 1017.4 |
| 20260831181513 | 93 | 127 | 1.0 | 6.0 | 0.00 | 0.00 | 0.00 | 44 | 1017.4 |
| 20260831181012 | 93 | 110 | 2.0 | 8.0 | 0.00 | 0.00 | 0.00 | 46 | 1017.6 |
| 20260831180510 | 92 | 89 | 1.0 | 10.0 | 0.00 | 0.00 | 0.00 | 48 | 1017.6 |
| 20260831180009 | 92 | 84 | 2.0 | 10.0 | 0.00 | 0.00 | 0.00 | 49 | 1017.6 |
| 20260831175509 | 93 | 71 | 2.0 | 11.0 | 0.00 | 0.00 | 0.00 | 45 | 1017.6 |
| 20260831175008 | 93 | 103 | 6.0 | 11.0 | 0.00 | 0.00 | 0.00 | 47 | 1017.6 |
| 20260831174508 | 93 | 148 | 3.0 | 11.0 | 0.00 | 0.00 | 0.00 | 45 | 1017.8 |
| 20260831174010 | 92 | 123 | 2.0 | 7.0 | 0.00 | 0.00 | 0.00 | 48 | 1017.8 |
| 20260831173506 | 91 | 127 | 2.0 | 5.0 | 0.00 | 0.00 | 0.00 | 52 | 1017.8 |
| 20260831173005 | 92 | 130 | 1.0 | 4.0 | 0.00 | 0.00 | 0.00 | 50 | 1017.8 |
| 20260831172504 | 91 | 130 | 0.0 | 8.0 | 0.00 | 0.00 | 0.00 | 50 | 1017.7 |
| 20260831172004 | 91 | 128 | 1.0 | 8.0 | 0.00 | 0.00 | 0.00 | 48 | 1017.8 |
| 20260831171504 | 92 | 130 | 2.0 | 6.0 | 0.00 | 0.00 | 0.00 | 49 | 1017.9 |
| 20260831171003 | 91 | 98 | 2.0 | 9.0 | 0.00 | 0.00 | 0.00 | 50 | 1018.0 |
| 20260831170502 | 91 | 94 | 1.0 | 9.0 | 0.00 | 0.00 | 0.00 | 52 | 1018.0 |
| 20260831170001 | 91 | 144 | 3.0 | 9.0 | 0.00 | 0.00 | 0.00 | 52 | 1018.0 |
| 20260831165500 | 91 | 104 | 0.0 | 5.0 | 0.00 | 0.00 | 0.00 | 53 | 1018.0 |
| 20260831165100 | 91 | 104 | 0.0 | 8.0 | 0.00 | 0.00 | 0.00 | 52 | 1018.1 |
| 20260831164559 | 91 | 104 | 2.0 | 10.0 | 0.00 | 0.00 | 0.00 | 53 | 1018.1 |
| 20260831164100 | 90 | 103 | 2.0 | 7.0 | 0.00 | 0.00 | 0.00 | 56 | 1018.0 |
| 20260831163555 | 90 | 102 | 3.0 | 7.0 | 0.00 | 0.00 | 0.00 | 56 | 1018.1 |
| 20260831163054 | 89 | 117 | 1.0 | 8.0 | 0.00 | 0.00 | 0.00 | 56 | 1018.0 |
| 20260831162556 | 89 | 117 | 1.0 | 8.0 | 0.00 | 0.00 | 0.00 | 57 | 1018.1 |
| 20260831162053 | 89 | 127 | 3.0 | 7.0 | 0.00 | 0.00 | 0.00 | 58 | 1018.1 |
| 20260831161551 | 88 | 118 | 2.0 | 7.0 | 0.00 | 0.00 | 0.00 | 58 | 1018.1 |
| 20260831161051 | 88 | 133 | 0.0 | 6.0 | 0.00 | 0.00 | 0.00 | 57 | 1018.1 |
| 20260831160550 | 88 | 133 | 1.0 | 6.0 | 0.00 | 0.00 | 0.00 | 60 | 1018.1 |
| 20260831160049 | 87 | 134 | 0.0 | 7.0 | 0.00 | 0.00 | 0.00 | 59 | 1018.1 |
| 20260831155547 | 87 | 128 | 3.0 | 6.0 | 0.00 | 0.00 | 0.00 | 61 | 1018.0 |
| 20260831155046 | 86 | 126 | 1.0 | 5.0 | 0.00 | 0.00 | 0.00 | 63 | 1017.9 |
| 20260831154548 | 86 | 124 | 2.0 | 5.0 | 0.00 | 0.00 | 0.00 | 61 | 1017.9 |
| 20260831154043 | 86 | 124 | 0.0 | 5.0 | 0.00 | 0.00 | 0.00 | 63 | 1017.8 |
| 20260831153546 | 85 | 128 | 0.0 | 5.0 | 0.00 | 0.00 | 0.00 | 63 | 1017.9 |
| 20260831153053 | 86 | 128 | 2.0 | 7.0 | 0.00 | 0.00 | 0.00 | 64 | 1017.9 |
| 20260831152541 | 85 | 121 | 1.0 | 7.0 | 0.00 | 0.00 | 0.00 | 65 | 1017.8 |
| 20260831152039 | 85 | 137 | 1.0 | 7.0 | 0.00 | 0.00 | 0.00 | 65 | 1017.7 |
| 20260831151545 | 84 | 137 | 0.0 | 7.0 | 0.00 | 0.00 | 0.00 | 66 | 1017.8 |
| 20260831151038 | 84 | 136 | 1.0 | 7.0 | 0.00 | 0.00 | 0.00 | 66 | 1017.8 |
| 20260831150539 | 83 | 132 | 1.0 | 5.0 | 0.00 | 0.00 | 0.00 | 66 | 1017.6 |
| 20260831150034 | 83 | 134 | 0.0 | 3.0 | 0.00 | 0.00 | 0.00 | 69 | 1017.8 |
| 20260831145533 | 83 | 134 | 0.0 | 5.0 | 0.00 | 0.00 | 0.00 | 69 | 1017.7 |
| 20260831145032 | 83 | 134 | 1.0 | 5.0 | 0.00 | 0.00 | 0.00 | 69 | 1017.7 |
| 20260831144530 | 82 | 135 | 1.0 | 5.0 | 0.00 | 0.00 | 0.00 | 70 | 1017.7 |
| 20260831144029 | 82 | 135 | 0.0 | 5.0 | 0.00 | 0.00 | 0.00 | 70 | 1017.7 |
| 20260831143529 | 81 | 135 | 1.0 | 5.0 | 0.00 | 0.00 | 0.00 | 70 | 1017.6 |
| 20260831143029 | 81 | 135 | 1.0 | 7.0 | 0.00 | 0.00 | 0.00 | 70 | 1017.7 |
| 20260831142525 | 81 | 135 | 1.0 | 7.0 | 0.00 | 0.00 | 0.00 | 70 | 1017.7 |
| 20260831142024 | 80 | 138 | 1.0 | 9.0 | 0.00 | 0.00 | 0.00 | 71 | 1017.7 |
| 20260831141523 | 80 | 132 | 2.0 | 9.0 | 0.00 | 0.00 | 0.00 | 71 | 1017.7 |
| 20260831141022 | 80 | 127 | 1.0 | 6.0 | 0.00 | 0.00 | 0.00 | 71 | 1017.6 |
| 20260831140522 | 80 | 126 | 0.0 | 6.0 | 0.00 | 0.00 | 0.00 | 71 | 1017.5 |
| 20260831140020 | 80 | 126 | 2.0 | 7.0 | 0.00 | 0.00 | 0.00 | 71 | 1017.5 |
| 20260831135520 | 79 | 125 | 1.0 | 4.0 | 0.00 | 0.00 | 0.00 | 70 | 1017.5 |
| 20260831135018 | 79 | 125 | 0.0 | 3.0 | 0.00 | 0.00 | 0.00 | 68 | 1017.5 |
| 20260831134520 | 78 | 125 | 1.0 | 4.0 | 0.00 | 0.00 | 0.00 | 67 | 1017.5 |
| 20260831134017 | 78 | 125 | 1.0 | 4.0 | 0.00 | 0.00 | 0.00 | 64 | 1017.4 |
| 20260831133517 | 78 | 125 | 1.0 | 3.0 | 0.00 | 0.00 | 0.00 | 63 | 1017.5 |
| 20260831133017 | 77 | 125 | 0.0 | 2.0 | 0.00 | 0.00 | 0.00 | 60 | 1017.4 |
| 20260831132516 | 77 | 125 | 0.0 | 2.0 | 0.00 | 0.00 | 0.00 | 60 | 1017.4 |
| 20260831132016 | 77 | 125 | 0.0 | 1.0 | 0.00 | 0.00 | 0.00 | 58 | 1017.4 |
| 20260831131518 | 76 | 125 | 0.0 | 1.0 | 0.00 | 0.00 | 0.00 | 58 | 1017.4 |
| 20260831131017 | 76 | 125 | 0.0 | 1.0 | 0.00 | 0.00 | 0.00 | 58 | 1017.4 |
| 20260831130514 | 76 | 125 | 0.0 | 0.0 | 0.00 | 0.00 | 0.00 | 59 | 1017.4 |
| 20260831130013 | 76 | 125 | 0.0 | 4.0 | 0.00 | 0.00 | 0.00 | 60 | 1017.4 |
| 20260831125511 | 76 | 125 | 0.0 | 4.0 | 0.00 | 0.00 | 0.00 | 60 | 1017.4 |
| 20260831125010 | 76 | 125 | 0.0 | 2.0 | 0.00 | 0.00 | 0.00 | 60 | 1017.2 |
| 20260831124509 | 76 | 125 | 0.0 | 2.0 | 0.00 | 0.00 | 0.00 | 62 | 1017.1 |
| 20260831124008 | 76 | 125 | 0.0 | 2.0 | 0.00 | 0.00 | 0.00 | 62 | 1017.1 |
| 20260831123514 | 76 | 125 | 0.0 | 1.0 | 0.00 | 0.00 | 0.00 | 63 | 1017.0 |
| 20260831123008 | 76 | 125 | 0.0 | 1.0 | 0.00 | 0.00 | 0.00 | 63 | 1017.0 |
| 20260831122508 | 76 | 125 | 0.0 | 2.0 | 0.00 | 0.00 | 0.00 | 64 | 1016.8 |
| 20260831122006 | 76 | 125 | 0.0 | 5.0 | 0.00 | 0.00 | 0.00 | 64 | 1016.8 |
| 20260831121506 | 76 | 125 | 1.0 | 5.0 | 0.00 | 0.00 | 0.00 | 64 | 1016.7 |
| 20260831121006 | 76 | 126 | 0.0 | 2.0 | 0.00 | 0.00 | 0.00 | 65 | 1016.8 |
| 20260831120507 | 76 | 126 | 0.0 | 2.0 | 0.00 | 0.00 | 0.00 | 65 | 1016.7 |
| 20260831120004 | 76 | 126 | 0.0 | 1.0 | 0.00 | 0.00 | 0.00 | 65 | 1016.7 |
| 20260831115505 | 76 | 126 | 0.0 | 1.0 | 0.00 | 0.00 | 0.00 | 65 | 1016.7 |
| 20260831115007 | 76 | 126 | 0.0 | 1.0 | 0.00 | 0.00 | 0.00 | 65 | 1016.6 |
| 20260831114503 | 76 | 126 | 0.0 | 2.0 | 0.00 | 0.00 | 0.00 | 66 | 1016.6 |
| 20260831114003 | 76 | 126 | 0.0 | 3.0 | 0.00 | 0.00 | 0.00 | 66 | 1016.6 |
| 20260831113505 | 76 | 126 | 0.0 | 3.0 | 0.00 | 0.00 | 0.00 | 66 | 1016.6 |
| 20260831113003 | 76 | 126 | 0.0 | 3.0 | 0.00 | 0.00 | 0.00 | 66 | 1016.7 |
| 20260831112502 | 76 | 126 | 1.0 | 4.0 | 0.00 | 0.00 | 0.00 | 66 | 1016.6 |
| 20260831112002 | 76 | 126 | 0.0 | 4.0 | 0.00 | 0.00 | 0.00 | 66 | 1016.7 |
| 20260831111503 | 76 | 126 | 1.0 | 4.0 | 0.00 | 0.00 | 0.00 | 67 | 1016.7 |
| 20260831111002 | 76 | 126 | 0.0 | 4.0 | 0.00 | 0.00 | 0.00 | 67 | 1016.8 |
| 20260831110501 | 76 | 126 | 0.0 | 3.0 | 0.00 | 0.00 | 0.00 | 67 | 1016.7 |
| 20260831110100 | 76 | 125 | 0.0 | 4.0 | 0.00 | 0.00 | 0.00 | 66 | 1016.7 |
| 20260831105601 | 76 | 125 | 1.0 | 7.0 | 0.00 | 0.00 | 0.00 | 66 | 1016.7 |
| 20260831105059 | 76 | 124 | 1.0 | 2.0 | 0.00 | 0.00 | 0.00 | 66 | 1016.7 |
| 20260831104602 | 76 | 124 | 0.0 | 2.0 | 0.00 | 0.00 | 0.00 | 65 | 1016.7 |
| 20260831104058 | 76 | 124 | 0.0 | 2.0 | 0.00 | 0.00 | 0.00 | 65 | 1016.9 |
| 20260831103559 | 76 | 124 | 0.0 | 1.0 | 0.00 | 0.00 | 0.00 | 65 | 1016.7 |
| 20260831103107 | 76 | 124 | 0.0 | 1.0 | 0.00 | 0.00 | 0.00 | 65 | 1016.7 |
| 20260831102558 | 76 | 124 | 0.0 | 1.0 | 0.00 | 0.00 | 0.00 | 65 | 1016.7 |
| 20260831102058 | 76 | 124 | 0.0 | 2.0 | 0.00 | 0.00 | 0.00 | 65 | 1016.8 |
| 20260831101601 | 76 | 124 | 0.0 | 3.0 | 0.00 | 0.00 | 0.00 | 65 | 1016.9 |
| 20260831101058 | 76 | 124 | 0.0 | 3.0 | 0.00 | 0.00 | 0.00 | 65 | 1016.9 |
| 20260831100557 | 76 | 124 | 0.0 | 2.0 | 0.00 | 0.00 | 0.00 | 65 | 1016.9 |
| 20260831100057 | 76 | 124 | 0.0 | 3.0 | 0.00 | 0.00 | 0.00 | 65 | 1016.9 |
| 20260831095557 | 76 | 124 | 0.0 | 3.0 | 0.00 | 0.00 | 0.00 | 65 | 1016.9 |
| 20260831095057 | 76 | 124 | 0.0 | 3.0 | 0.00 | 0.00 | 0.00 | 65 | 1016.8 |
| 20260831094605 | 76 | 124 | 0.0 | 4.0 | 0.00 | 0.00 | 0.00 | 65 | 1016.8 |
| 20260831094058 | 76 | 124 | 0.0 | 4.0 | 0.00 | 0.00 | 0.00 | 65 | 1016.7 |
| 20260831093557 | 76 | 124 | 1.0 | 5.0 | 0.00 | 0.00 | 0.00 | 66 | 1016.7 |
| 20260831093141 | 76 | 124 | 1.0 | 4.0 | 0.00 | 0.00 | 0.00 | 66 | 1016.7 |
| 20260831092556 | 76 | 124 | 1.0 | 3.0 | 0.00 | 0.00 | 0.00 | 66 | 1016.8 |
| 20260831092055 | 76 | 124 | 0.0 | 3.0 | 0.00 | 0.00 | 0.00 | 66 | 1016.7 |
| 20260831091555 | 76 | 124 | 1.0 | 3.0 | 0.00 | 0.00 | 0.00 | 67 | 1016.8 |
| 20260831091056 | 76 | 124 | 0.0 | 2.0 | 0.00 | 0.00 | 0.00 | 67 | 1016.8 |
| 20260831090556 | 76 | 124 | 0.0 | 4.0 | 0.00 | 0.00 | 0.00 | 67 | 1016.8 |
| 20260831090056 | 76 | 124 | 0.0 | 4.0 | 0.00 | 0.00 | 0.00 | 68 | 1016.8 |
| 20260831085554 | 76 | 124 | 0.0 | 5.0 | 0.00 | 0.00 | 0.00 | 68 | 1016.8 |
| 20260831085054 | 76 | 124 | 1.0 | 5.0 | 0.00 | 0.00 | 0.00 | 68 | 1016.7 |
| 20260831084635 | 76 | 124 | 0.0 | 2.0 | 0.00 | 0.00 | 0.00 | 68 | 1016.8 |
| 20260831084053 | 76 | 124 | 1.0 | 3.0 | 0.00 | 0.00 | 0.00 | 68 | 1016.8 |
| 20260831083556 | 76 | 124 | 0.0 | 3.0 | 0.00 | 0.00 | 0.00 | 69 | 1016.8 |
| 20260831083100 | 76 | 124 | 0.0 | 3.0 | 0.00 | 0.00 | 0.00 | 69 | 1016.9 |
| 20260831082557 | 76 | 124 | 0.0 | 3.0 | 0.00 | 0.00 | 0.00 | 69 | 1017.0 |
| 20260831082053 | 76 | 124 | 0.0 | 3.0 | 0.00 | 0.00 | 0.00 | 70 | 1016.9 |
| 20260831081553 | 76 | 124 | 1.0 | 2.0 | 0.00 | 0.00 | 0.00 | 70 | 1016.9 |
| 20260831081051 | 76 | 124 | 0.0 | 2.0 | 0.00 | 0.00 | 0.00 | 70 | 1016.9 |
| 20260831080551 | 76 | 124 | 0.0 | 2.0 | 0.00 | 0.00 | 0.00 | 70 | 1016.9 |
| 20260831080116 | 76 | 124 | 0.0 | 3.0 | 0.00 | 0.00 | 0.00 | 71 | 1016.9 |
| 20260831075550 | 77 | 124 | 0.0 | 3.0 | 0.00 | 0.00 | 0.00 | 71 | 1016.9 |
| 20260831075050 | 77 | 124 | 1.0 | 3.0 | 0.00 | 0.00 | 0.00 | 71 | 1016.9 |
| 20260831074551 | 77 | 124 | 1.0 | 3.0 | 0.00 | 0.00 | 0.00 | 71 | 1017.0 |
| 20260831074052 | 77 | 124 | 0.0 | 4.0 | 0.00 | 0.00 | 0.00 | 71 | 1016.9 |
| 20260831073550 | 77 | 124 | 1.0 | 4.0 | 0.00 | 0.00 | 0.00 | 71 | 1017.0 |
| 20260831073050 | 77 | 124 | 1.0 | 4.0 | 0.00 | 0.00 | 0.00 | 71 | 1016.9 |
| 20260831072551 | 77 | 124 | 1.0 | 5.0 | 0.00 | 0.00 | 0.00 | 71 | 1016.8 |
| 20260831072049 | 77 | 124 | 2.0 | 7.0 | 0.00 | 0.00 | 0.00 | 71 | 1016.8 |
| 20260831071551 | 77 | 123 | 1.0 | 7.0 | 0.00 | 0.00 | 0.00 | 71 | 1016.8 |
| 20260831071049 | 77 | 122 | 2.0 | 4.0 | 0.00 | 0.00 | 0.00 | 71 | 1016.8 |
| 20260831070548 | 77 | 123 | 1.0 | 3.0 | 0.00 | 0.00 | 0.00 | 71 | 1016.9 |
| 20260831070047 | 78 | 123 | 1.0 | 4.0 | 0.00 | 0.00 | 0.00 | 71 | 1016.9 |
| 20260831065550 | 78 | 123 | 1.0 | 4.0 | 0.00 | 0.00 | 0.00 | 71 | 1016.9 |
| 20260831065046 | 78 | 123 | 1.0 | 5.0 | 0.00 | 0.00 | 0.00 | 71 | 1017.0 |
| 20260831064553 | 78 | 123 | 2.0 | 5.0 | 0.00 | 0.00 | 0.00 | 71 | 1017.1 |
| 20260831064044 | 78 | 123 | 3.0 | 5.0 | 0.00 | 0.00 | 0.00 | 71 | 1017.1 |
| 20260831063544 | 78 | 126 | 2.0 | 5.0 | 0.00 | 0.00 | 0.00 | 70 | 1017.1 |
| 20260831063101 | 78 | 126 | 2.0 | 7.0 | 0.00 | 0.00 | 0.00 | 70 | 1017.1 |
| 20260831062543 | 78 | 126 | 2.0 | 7.0 | 0.00 | 0.00 | 0.00 | 70 | 1017.1 |
| 20260831062043 | 78 | 120 | 2.0 | 7.0 | 0.00 | 0.00 | 0.00 | 70 | 1017.0 |
| 20260831061542 | 78 | 116 | 2.0 | 7.0 | 0.00 | 0.00 | 0.00 | 69 | 1017.0 |
| 20260831061041 | 79 | 117 | 1.0 | 7.0 | 0.00 | 0.00 | 0.00 | 69 | 1017.0 |
| 20260831060540 | 79 | 115 | 1.0 | 5.0 | 0.00 | 0.00 | 0.00 | 69 | 1016.9 |
| 20260831060040 | 79 | 115 | 2.0 | 5.0 | 0.00 | 0.00 | 0.00 | 68 | 1017.0 |
| 20260831055539 | 79 | 115 | 1.0 | 5.0 | 0.00 | 0.00 | 0.00 | 68 | 1017.0 |
| 20260831055041 | 79 | 115 | 2.0 | 7.0 | 0.00 | 0.00 | 0.00 | 68 | 1017.0 |
| 20260831054537 | 79 | 117 | 2.0 | 7.0 | 0.00 | 0.00 | 0.00 | 68 | 1016.9 |
| 20260831054036 | 79 | 123 | 2.0 | 5.0 | 0.00 | 0.00 | 0.00 | 67 | 1016.8 |
| 20260831053535 | 79 | 126 | 1.0 | 7.0 | 0.00 | 0.00 | 0.00 | 67 | 1016.7 |
| 20260831053038 | 80 | 132 | 2.0 | 7.0 | 0.00 | 0.00 | 0.00 | 67 | 1016.8 |
| 20260831052533 | 80 | 121 | 1.0 | 5.0 | 0.00 | 0.00 | 0.00 | 66 | 1016.8 |
| 20260831052037 | 80 | 121 | 1.0 | 7.0 | 0.00 | 0.00 | 0.00 | 66 | 1016.8 |
| 20260831051538 | 80 | 121 | 2.0 | 7.0 | 0.00 | 0.00 | 0.00 | 66 | 1016.7 |
| 20260831051031 | 80 | 129 | 3.0 | 7.0 | 0.00 | 0.00 | 0.00 | 65 | 1016.7 |
| 20260831050531 | 80 | 123 | 2.0 | 5.0 | 0.00 | 0.00 | 0.00 | 65 | 1016.7 |
| 20260831050029 | 80 | 123 | 2.0 | 6.0 | 0.00 | 0.00 | 0.00 | 65 | 1016.7 |
| 20260831045529 | 81 | 132 | 2.0 | 6.0 | 0.00 | 0.00 | 0.00 | 65 | 1016.7 |
| 20260831045030 | 81 | 128 | 2.0 | 6.0 | 0.00 | 0.00 | 0.00 | 64 | 1016.6 |
| 20260831044528 | 81 | 129 | 2.0 | 10.0 | 0.00 | 0.00 | 0.00 | 64 | 1016.6 |
| 20260831044028 | 81 | 138 | 4.0 | 10.0 | 0.00 | 0.00 | 0.00 | 63 | 1016.6 |
| 20260831043528 | 81 | 104 | 2.0 | 7.0 | 0.00 | 0.00 | 0.00 | 63 | 1016.5 |
| 20260831043027 | 82 | 105 | 2.0 | 4.0 | 0.00 | 0.00 | 0.00 | 62 | 1016.5 |
| 20260831042527 | 82 | 105 | 1.0 | 3.0 | 0.00 | 0.00 | 0.00 | 62 | 1016.5 |
| 20260831042027 | 82 | 105 | 0.0 | 9.0 | 0.00 | 0.00 | 0.00 | 62 | 1016.4 |
| 20260831041527 | 82 | 105 | 2.0 | 9.0 | 0.00 | 0.00 | 0.00 | 62 | 1016.4 |
| 20260831041027 | 82 | 107 | 2.0 | 8.0 | 0.00 | 0.00 | 0.00 | 61 | 1016.3 |